[[{"header":{"parameterUnit":"m.s-1","parameterCategory":1,"la1":30.2991,"la2":30.254,"lo1":-89.0895,"lo2":-89.0444,"dy":0.0017,"dx":0.0017,"nx":28,"ny":28,"refTime":"2024-08-19T03:00:00:Z","depth":0,"parameterNumber":2,"parameterNumberName":"U-component_of_WINDS"},"data":[0,0,0,0,0,0,0,0,0,0,0,0,0,0,0,0,0,0,0,0,0,0,0,0,0,0,0,0,0,0,0,0,0,0,0,0,0,0,0,0,0,0,0,0,0,0,0,0,0,0,0,0,0,0,0,0,0,0,1.1492,1.1492,0,1.1504,1.1504,1.1504,1.1434,1.1432,1.143,1.1428,1.1446,1.1449,1.1451,0,0,0,0,0,0,0,0,0,0,0,0,0,1.1415,1.1417,1.1492,1.1492,1.1492,1.1504,1.1504,1.1504,1.1434,1.1432,1.1429,1.1427,1.1446,1.1448,1.1451,0,0,0,0,0,0,0,0,0,0,0,0,0,1.144,1.1417,1.1492,1.1458,1.1456,1.1504,1.1504,1.1504,1.1435,1.1432,1.1429,1.1426,1.1445,1.1448,1.1452,1.1534,0,0,1.1462,1.1464,0,0,0,0,0,0,0,0,1.1439,1.1443,1.1463,1.1461,1.1458,1.1464,1.1483,1.1514,1.1436,1.1443,1.1428,1.1425,1.1455,1.1458,1.1467,1.1535,1.1535,1.1463,1.1465,1.1466,1.1467,0,0,0,0,0,0,0,1.1437,1.1442,1.1496,1.1464,1.146,1.1445,1.1445,1.1489,1.1466,1.1442,1.1437,1.1439,1.1453,1.1463,1.1467,1.1536,1.1463,1.1466,1.1468,1.1469,1.1676,1.1679,0,0,0,0,0,0,1.1439,1.1441,1.1496,1.1497,1.144,1.1449,1.1449,1.1465,1.1465,1.1462,1.1442,1.1436,1.1459,1.1462,1.1467,1.1566,1.1466,1.147,1.1472,1.1673,1.1677,1.1681,0,0,0,0,0,0,1.1438,1.1444,1.1496,1.1468,1.1473,1.1454,1.1472,1.1467,1.1477,1.1465,1.1461,1.1456,1.1457,1.1462,1.1518,1.1566,1.1471,1.1474,1.1669,1.1674,1.1679,1.1764,0,0,0,0,0,0,1.1436,1.1444,1.1474,1.1469,1.1475,1.1545,1.1475,1.1469,1.1483,1.1475,1.1477,1.1475,1.1455,1.1513,1.1522,1.1569,1.1477,1.1665,1.1671,1.1677,1.1757,1.1771,1.1784,0,0,0,0,0,1.1433,1.1498,1.1475,1.1482,1.1511,1.1548,1.1551,1.1525,1.1487,1.1518,1.151,1.1475,1.1559,1.152,1.1529,1.1578,1.1662,1.1669,1.1677,1.1751,1.1769,1.1783,0,0,0,0,0,0,1.151,1.1496,1.1472,1.1536,1.1543,1.1536,1.1573,1.1544,1.1564,1.1556,1.1524,1.1526,1.1588,1.1588,1.1545,1.1659,1.1604,1.1614,1.1657,1.1674,1.1687,1.1687,1.148,0,0,0,0,0,1.1534,1.1563,1.155,1.1609,1.1613,1.1593,1.1608,1.1587,1.1595,1.1598,1.1594,1.1605,1.1634,1.1653,1.1679,1.1756,1.1758,1.1794,1.1808,1.1819,1.1829,1.1874,1.1891,1.1706,1.1706,1.1705,0,0,1.1585,1.1581,1.1601,1.1624,1.1627,1.1661,1.1596,1.1634,1.166,1.1604,1.1657,1.1656,1.1665,1.1733,1.1763,1.1735,1.188,1.1829,1.1837,1.1841,1.1883,1.1901,1.1916,1.1711,1.171,1.1709,0,0,1.1695,1.1693,1.1743,1.1748,1.1754,1.174,1.1752,1.1749,1.1746,1.1798,1.1759,1.179,1.1839,1.1849,1.186,1.1976,1.1946,1.1986,1.2057,1.2101,1.2116,1.2128,1.2174,1.219,1.1995,1.1995,1.1995,0,1.1758,1.1805,1.1773,1.1814,1.1827,1.1777,1.1829,1.1836,1.1851,1.1862,1.183,1.1893,1.1895,1.1967,1.1996,1.2005,1.2021,1.1986,1.2115,1.2128,1.214,1.2183,1.2199,1.2,1.1999,1.1999,1.1998,0,1.1884,1.1918,1.1958,1.1972,1.1989,1.2036,1.2014,1.2035,1.2013,1.2004,1.2061,1.2062,1.2089,1.2104,1.2083,1.2173,1.2156,1.212,1.2065,1.2163,1.2203,1.2219,1.2007,1.2005,1.2004,1.2003,0,0,1.2044,1.2041,1.2056,1.2064,1.2067,1.2094,1.2139,1.2164,1.2185,1.2197,1.2237,1.2281,1.2249,1.2262,1.2242,1.228,1.2377,1.2239,1.2239,1.2268,1.2482,1.2511,1.253,1.2356,1.2359,1.2361,1.2482,0,1.2155,1.2231,1.2204,1.2283,1.2316,1.227,1.231,1.2318,1.2311,1.234,1.2333,1.2366,1.2318,1.2327,1.2362,1.2357,1.242,1.2348,1.2397,1.2399,1.2399,1.2551,1.2581,1.2696,1.2497,1.25,1.2502,0,1.2294,1.2311,1.2393,1.2393,1.2406,1.2443,1.2465,1.2492,1.2502,1.2494,1.251,1.2482,1.2531,1.2473,1.2541,1.2493,1.2511,1.2512,1.2516,1.2522,1.2458,1.2565,1.2731,1.275,1.2525,1.2523,1.2522,0,1.2407,1.245,1.2506,1.2513,1.2514,1.2541,1.2543,1.2549,1.2567,1.2587,1.2599,1.2625,1.264,1.2662,1.2644,1.2603,1.2717,1.2657,1.2716,1.2717,1.2744,1.2743,1.292,1.275,1.275,1.275,1.2749,0,1.2535,1.2588,1.2557,1.2592,1.2651,1.2621,1.2681,1.2678,1.2685,1.272,1.2681,1.2716,1.2688,1.2722,1.2708,1.2769,1.2775,1.2773,1.277,1.2779,1.2779,1.2792,1.2786,1.2754,1.2753,1.2752,1.2751,0,1.2672,1.2653,1.2711,1.2707,1.2707,1.2752,1.275,1.2783,1.2773,1.2819,1.2828,1.2814,1.2852,1.2835,1.2874,1.2865,1.2945,1.2929,1.2942,1.2939,1.3,1.2996,1.3194,1.322,1.303,1.3032,1.3034,0,1.2757,1.2796,1.2797,1.2817,1.2822,1.2854,1.2872,1.2845,1.2866,1.2881,1.2914,1.2948,1.2973,1.3036,1.3031,1.3062,1.3049,1.3116,1.3054,1.3063,1.3055,1.3054,1.306,1.313,1.3132,1.3134,1.3135,0,1.291,1.2899,1.2925,1.2949,1.2972,1.2989,1.3004,1.3024,1.2997,1.3023,1.306,1.308,1.3121,1.3156,1.3184,1.3189,1.316,1.3154,1.3171,1.3182,1.319,1.319,1.298,1.3151,1.3149,1.3148,1.3147,1.3147,1.3026,1.3061,1.3067,1.3099,1.3107,1.3122,1.3154,1.3149,1.3178,1.3208,1.3191,1.3236,1.3247,1.3281,1.329,1.3327,1.3301,1.3323,1.333,1.3337,1.3347,1.3181,1.3332,1.3331,1.3331,1.333,1.333,0,1.3182,1.3184,1.3212,1.3234,1.326,1.3227,1.3242,1.3267,1.3307,1.3319,1.3345,1.339,1.3425,1.3422,1.3455,1.3486,1.3473,1.3496,1.3495,1.3498,1.3366,1.3351,1.3505,1.3505,1.3505,1.3505,1.3505,1.3505,1.3266,1.3324,1.3314,1.3377,1.3378,1.3421,1.3433,1.3448,1.3458,1.3509,1.3538,1.3535,1.3543,1.3577,1.3608,1.3607,1.3623,1.3651,1.3646,1.3524,1.3506,1.349,1.3475,1.3654,1.3654,1.3775,1.3776,1.3777]},{"header":{"parameterUnit":"m.s-1","parameterCategory":1,"la1":30.2991,"la2":30.254,"lo1":-89.0895,"lo2":-89.0444,"dy":0.0017,"dx":0.0017,"nx":28,"ny":28,"refTime":"2024-08-19T03:00:00:Z","depth":0,"parameterNumber":3,"parameterNumberName":"V-component_of_WINDS"},"data":[0,0,0,0,0,0,0,0,0,0,0,0,0,0,0,0,0,0,0,0,0,0,0,0,0,0,0,0,0,0,0,0,0,0,0,0,0,0,0,0,0,0,0,0,0,0,0,0,0,0,0,0,0,0,0,0,0,0,-1.1744,-1.1744,0,-1.166,-1.1659,-1.1658,-1.169,-1.1692,-1.1694,-1.1696,-1.1608,-1.1603,-1.1599,0,0,0,0,0,0,0,0,0,0,0,0,0,-1.1935,-1.1932,-1.1745,-1.1743,-1.1742,-1.166,-1.1659,-1.1658,-1.169,-1.1692,-1.1694,-1.1697,-1.1609,-1.1604,-1.1599,0,0,0,0,0,0,0,0,0,0,0,0,0,-1.1852,-1.193,-1.1745,-1.1749,-1.1748,-1.166,-1.1659,-1.1657,-1.1689,-1.1692,-1.1695,-1.1698,-1.1611,-1.1604,-1.1598,-1.1501,0,0,-1.1579,-1.1577,0,0,0,0,0,0,0,0,-1.1856,-1.1845,-1.1749,-1.1748,-1.1747,-1.1689,-1.1694,-1.1605,-1.1688,-1.1711,-1.1696,-1.1699,-1.1632,-1.1624,-1.1602,-1.1497,-1.1493,-1.1579,-1.1575,-1.1572,-1.157,0,0,0,0,0,0,0,-1.1862,-1.1848,-1.1711,-1.1748,-1.1747,-1.1755,-1.1746,-1.1677,-1.1656,-1.171,-1.1712,-1.1701,-1.1632,-1.1608,-1.16,-1.1492,-1.1579,-1.1573,-1.1569,-1.1567,-1.1309,-1.1306,0,0,0,0,0,0,-1.1868,-1.1853,-1.1714,-1.1708,-1.181,-1.1749,-1.1739,-1.1704,-1.1657,-1.1653,-1.1699,-1.1703,-1.1617,-1.1607,-1.1597,-1.1484,-1.1572,-1.1566,-1.1563,-1.1312,-1.1308,-1.1305,0,0,0,0,0,0,-1.1872,-1.1855,-1.1717,-1.1781,-1.1764,-1.1743,-1.1703,-1.1701,-1.1677,-1.1649,-1.1646,-1.1678,-1.1619,-1.1606,-1.1526,-1.1481,-1.1564,-1.1558,-1.1315,-1.1311,-1.1306,-1.1254,0,0,0,0,0,0,-1.1877,-1.1857,-1.1819,-1.178,-1.1761,-1.1647,-1.17,-1.1697,-1.1666,-1.1671,-1.1628,-1.1624,-1.162,-1.1535,-1.152,-1.1474,-1.1553,-1.1319,-1.1313,-1.1308,-1.126,-1.1249,-1.1239,0,0,0,0,0,-1.1884,-1.1806,-1.1817,-1.18,-1.1713,-1.1644,-1.1633,-1.1631,-1.1662,-1.1625,-1.1608,-1.1626,-1.1488,-1.1527,-1.151,-1.1461,-1.1322,-1.1315,-1.1308,-1.1265,-1.1251,-1.1239,0,0,0,0,0,0,-1.1839,-1.1801,-1.1812,-1.172,-1.1685,-1.165,-1.1602,-1.1615,-1.157,-1.1576,-1.1575,-1.1565,-1.1484,-1.1464,-1.1508,-1.1367,-1.141,-1.1399,-1.1383,-1.1369,-1.1359,-1.1366,-1.1548,0,0,0,0,0,-1.1818,-1.1765,-1.1735,-1.1656,-1.1639,-1.1623,-1.1593,-1.1595,-1.1558,-1.1544,-1.152,-1.1485,-1.1434,-1.14,-1.1352,-1.1257,-1.125,-1.1216,-1.1205,-1.1197,-1.1188,-1.1141,-1.1126,-1.1282,-1.1282,-1.1282,0,0,-1.1774,-1.1748,-1.1714,-1.1647,-1.162,-1.1566,-1.1611,-1.1551,-1.1512,-1.1534,-1.1459,-1.1441,-1.1401,-1.1315,-1.1275,-1.1296,-1.1143,-1.1188,-1.1181,-1.1177,-1.1132,-1.1117,-1.1104,-1.1277,-1.1278,-1.1278,0,0,-1.1668,-1.1641,-1.1575,-1.1548,-1.1508,-1.1499,-1.1483,-1.1447,-1.1436,-1.136,-1.1378,-1.1331,-1.1242,-1.1215,-1.1189,-1.1077,-1.1093,-1.1061,-1.1005,-1.0959,-1.0947,-1.0936,-1.09,-1.0886,-1.1052,-1.1052,-1.1052,0,-1.1619,-1.1539,-1.1539,-1.1479,-1.145,-1.147,-1.1404,-1.1378,-1.1323,-1.1304,-1.1328,-1.122,-1.1194,-1.1104,-1.1077,-1.1054,-1.1038,-1.1066,-1.0949,-1.0938,-1.0928,-1.0893,-1.0879,-1.1048,-1.1049,-1.1049,-1.1049,0,-1.1483,-1.1427,-1.1378,-1.1327,-1.1293,-1.123,-1.1221,-1.1186,-1.1192,-1.1181,-1.1106,-1.1076,-1.1024,-1.1002,-1.1005,-1.0913,-1.0927,-1.095,-1.0993,-1.091,-1.0877,-1.0863,-1.1044,-1.1045,-1.1046,-1.1047,0,0,-1.1344,-1.1297,-1.1279,-1.1258,-1.1217,-1.1174,-1.1113,-1.1064,-1.1036,-1.0998,-1.0949,-1.0875,-1.0897,-1.0868,-1.0869,-1.0828,-1.0746,-1.0856,-1.0856,-1.0839,-1.0646,-1.0632,-1.0616,-1.0756,-1.0753,-1.0751,-1.0651,0,-1.1237,-1.1131,-1.1131,-1.1033,-1.0984,-1.1004,-1.0952,-1.0921,-1.091,-1.0867,-1.0854,-1.0804,-1.0835,-1.0818,-1.0779,-1.0764,-1.0707,-1.0771,-1.0712,-1.071,-1.0723,-1.0598,-1.0581,-1.0488,-1.0638,-1.0635,-1.0634,0,-1.1097,-1.1058,-1.0957,-1.0927,-1.0906,-1.0859,-1.0815,-1.0773,-1.074,-1.0735,-1.0705,-1.0713,-1.0653,-1.0698,-1.0617,-1.066,-1.0636,-1.0625,-1.0622,-1.0618,-1.0668,-1.0593,-1.0457,-1.0445,-1.0613,-1.0615,-1.0616,0,-1.1011,-1.0932,-1.0862,-1.0843,-1.0805,-1.0773,-1.0755,-1.0726,-1.0697,-1.0659,-1.0641,-1.0596,-1.0572,-1.0537,-1.0534,-1.0566,-1.0454,-1.0497,-1.045,-1.045,-1.0426,-1.0428,-1.0287,-1.0406,-1.0407,-1.0407,-1.0407,0,-1.0893,-1.083,-1.0824,-1.0781,-1.0713,-1.0714,-1.0646,-1.0632,-1.0606,-1.0562,-1.0575,-1.0534,-1.0531,-1.0489,-1.0485,-1.0421,-1.0409,-1.0405,-1.0405,-1.0405,-1.0406,-1.039,-1.0397,-1.0403,-1.0404,-1.0405,-1.0405,0,-1.0784,-1.0777,-1.0703,-1.0674,-1.0666,-1.0617,-1.0594,-1.0554,-1.0545,-1.0489,-1.0476,-1.0462,-1.0414,-1.0407,-1.0349,-1.0347,-1.0271,-1.0277,-1.0282,-1.0284,-1.0239,-1.0244,-1.0085,-1.0065,-1.0195,-1.0193,-1.0192,0,-1.071,-1.0664,-1.0631,-1.0604,-1.0585,-1.0539,-1.0511,-1.0511,-1.0481,-1.0443,-1.0408,-1.0361,-1.0324,-1.0246,-1.0231,-1.0188,-1.0195,-1.0142,-1.0188,-1.0191,-1.0198,-1.0202,-1.0198,-1.0133,-1.0132,-1.0131,-1.013,0,-1.0581,-1.0581,-1.054,-1.0499,-1.0466,-1.0433,-1.0402,-1.0378,-1.0375,-1.0341,-1.0292,-1.0263,-1.0207,-1.0161,-1.0119,-1.0102,-1.0116,-1.0116,-1.0103,-1.0103,-1.011,-1.0109,-1.0261,-1.0119,-1.012,-1.0121,-1.0122,-1.0122,-1.049,-1.0451,-1.0423,-1.0378,-1.0356,-1.0328,-1.029,-1.0278,-1.0238,-1.0192,-1.0194,-1.0142,-1.0114,-1.006,-1.004,-1.0,-1.0017,-0.9998,-0.9994,-0.999,-0.9987,-1.0115,-0.9992,-0.9992,-0.9992,-0.9993,-0.9993,0,-1.0364,-1.0348,-1.0307,-1.0265,-1.0231,-1.0247,-1.0215,-1.0185,-1.0139,-1.0112,-1.0076,-1.0022,-0.9979,-0.9962,-0.992,-0.9891,-0.9897,-0.9881,-0.9884,-0.9881,-0.9972,-0.9988,-0.9877,-0.9877,-0.9877,-0.9877,-0.9877,-0.9877,-1.0295,-1.0231,-1.0228,-1.0154,-1.0138,-1.0088,-1.0069,-1.0044,-1.0023,-0.9962,-0.9927,-0.9917,-0.9894,-0.9852,-0.9814,-0.981,-0.9795,-0.9777,-0.9776,-0.9862,-0.9874,-0.9885,-0.9901,-0.9773,-0.9773,-0.9689,-0.9688,-0.9687]}]]